Regional Weather Roundup
Issued by NWS

Home | Current Version | Previous Version | Text Only | Print | Product List | Glossary On
Versions: 1 2 3 4 5 6 7 8 9 10 11 12 13 14 15 16 17 18 19 20 21 22 23 24 25 26 27 28 29 30 31 32 33 34 35 36 37 38 39 40 41 42 43 44 45 46 47 48 49 50
000
ASUS43 KMKX 272121
RWRWI

WISCONSIN REGIONAL WEATHER ROUNDUP
NATIONAL WEATHER SERVICE MILWAUKEE/SULLIVAN WI
300 PM CST SAT DEC 27 2014

NOTE: "FAIR" INDICATES FEW OR NO CLOUDS BELOW 12,000 FEET WITH NO
SIGNIFICANT WEATHER AND/OR OBSTRUCTIONS TO VISIBILITY.

WIZ001-002-006>008-014>016-023>028-272200-
NORTHWEST WISCONSIN

CITY           SKY/WX    TMP DP  RH WIND       PRES   REMARKS
SUPERIOR ARPT  SUNNY     27  10  48 W8        30.01S WCI  18
ASHLAND        PTCLDY    23  16  74 W9        29.99R WCI  13
HAYWARD        SUNNY     24  14  65 W6        29.99R WCI  17
SIREN          SUNNY     25  14  63 W9        30.03R WCI  16
CUMBERLAND     SUNNY     21  12  68 W6        30.01S WCI  14
RICE LAKE      SUNNY     23  14  70 W7        30.04R WCI  14
CHETEK         MOSUNNY   23  15  73 W9        30.04R WCI  13
LADYSMITH      CLOUDY    26  21  81 W10       30.01R WCI  16
EAU CLAIRE     CLOUDY    23  16  74 W13       30.04R WCI  11
MENOMONIE      CLOUDY    25  19  77 W8        30.05S WCI  16
NEW RICHMOND   SUNNY     25  16  69 W10       30.06R WCI  14
OSCEOLA        SUNNY     26  15  64 W10       30.09R WCI  16
$$

WIZ003>005-009-010-017-018-272200-
NORTH CENTRAL WISCONSIN

CITY           SKY/WX    TMP DP  RH WIND       PRES   REMARKS
MANITOWISH WTR CLOUDY    24  23  94 NW8       29.91R WCI  16
ARBOR VITAE    CLOUDY    29  26  89 NW7       29.91R WCI  22
WOODRUFF       CLOUDY    29  26  89 NW7       29.91R WCI  22
RHINELANDER    CLOUDY    28  24  85 NW12G20   29.89R WCI  18
EAGLE RIVER    LGT SNOW  28  24  85 NW8       29.88R WCI  20
LAND O LAKES   LGT SNOW  28  25  86 NW6       29.89R WCI  22
PHILLIPS       CLOUDY    26  23  89 W3        29.94R
TOMAHAWK       CLOUDY    28  24  86 NW10G16   29.92R WCI  19
MEDFORD        CLOUDY    27  23  86 NW10      29.94R WCI  17
MERRILL        CLOUDY    31  26  81 NW10      29.92R WCI  22
$$

WIZ029-030-035-036-043>047-272200-
CENTRAL WISCONSIN

CITY           SKY/WX    TMP DP  RH WIND       PRES   REMARKS
WAUSAU         CLOUDY    31  26  82 NW14G22   29.91R WCI  21
MOSINEE        CLOUDY    30  28  93 NW15      29.93R WCI  19
MARSHFIELD     CLOUDY    29  23  78 NW15      29.96R WCI  18
STEVENS POINT  CLOUDY    30  27  89 W9G16     29.95R WCI  22
WAUPACA        CLOUDY    36  31  82 W9G16     29.93R WCI  29
WAUTOMA        CLOUDY    33  30  89 NW13G24   29.97R WCI  24
WISC RAPIDS    CLOUDY    30  25  81 W14G24    29.98R WCI  19
CAMP DOUGLAS   CLOUDY    29  29 100 W16       30.01R WCI  18
$$

WIZ011>013-019>022-031-037>040-048>050-272200-
NORTHEAST WISCONSIN

CITY           SKY/WX    TMP DP  RH WIND       PRES   REMARKS
ANTIGO         LGT SNOW  30  28  95 NW9       29.88R WCI  21
SHAWANO        CLOUDY    34  33  96 NW7       29.89R WCI  28
OCONTO         CLOUDY    33  33 100 NW7       29.87R WCI  27
STURGEON BAY   CLOUDY    34  30  86 NW10      29.87R WCI  26
GREEN BAY      CLOUDY    35  32  88 NW12      29.88R WCI  27
MANITOWOC      CLOUDY    37  32  82 W18G26    29.87R WCI  27
APPLETON       CLOUDY    34  32  93 W14G22    29.89R WCI  24
CLINTONVILLE   CLOUDY    34  32  93 NW10      29.89R WCI  26
OSHKOSH        CLOUDY    34  29  82 W15G24    29.92R WCI  24
$$

WIZ032>034-041-042-053>061-272200-
SOUTHWEST WISCONSIN

CITY           SKY/WX    TMP DP  RH WIND       PRES   REMARKS
LA CROSSE      CLOUDY    29  23  78 W13       30.06R WCI  19
SPARTA         CLOUDY    30  25  81 W12       30.05R WCI  21
VIROQUA        CLOUDY    28  28 100 W12       30.02R WCI  18
BOSCOBEL       PTSUNNY   32  24  72 NW9       30.07R WCI  24
PRAIRIE DU CHI MOSUNNY   32  24  72 W14       30.07R WCI  22
PLATTEVILLE    CLOUDY    31  27  84 W17       30.05R WCI  20
$$

WIZ056-057-062-063-064-067-068-272200-
SOUTH CENTRAL WISCONSIN

CITY           SKY/WX    TMP DP  RH WIND       PRES   REMARKS
REEDSBURG      CLOUDY    31  27  86 W10G20    30.00R WCI  22
BARABOO/DELLS  CLOUDY    31  27  84 W10       29.99R WCI  22
LONE ROCK      CLOUDY    35  26  69 W12       30.04R WCI  27
MINERAL POINT  CLOUDY    32  28  86 W15G23    30.02R WCI  22
MADISON        CLOUDY    33  28  81 W8        29.99R WCI  26
MIDDLETON      CLOUDY    33  29  85 W13       30.00R WCI  24
WATERTOWN      CLOUDY    34  29  83 W14G22    29.97R WCI  24
MONROE         CLOUDY    32  28  86 W18       30.02R WCI  20
JANESVILLE     CLOUDY    36  28  75 W15       30.01R WCI  26
$$

WIZ051-052-058>065-066-070>072-272200-
SOUTHEAST WISCONSIN

CITY           SKY/WX    TMP DP  RH WIND       PRES   REMARKS
MILWAUKEE      CLOUDY    37  28  70 W21G35    29.95R WCI  26
WAUKESHA       CLOUDY    34  30  86 W23G29    29.96R WCI  22
MILWAUKEE/TIMM CLOUDY    36  28  75 W20G26    29.94R WCI  25
RACINE         CLOUDY    37  29  72 W15G29    29.98R WCI  28
BURLINGTON     CLOUDY    34  28  80 W13G22    29.99R WCI  25
KENOSHA        CLOUDY    36  30  79 W18G29    29.98R WCI  26
FOND DU LAC    CLOUDY    35  29  78 W16G26    29.93R WCI  25
SHEBOYGAN      CLOUDY    36  29  75 W16G31    29.90R WCI  26
WEST BEND      CLOUDY    34  28  80 W22G28    29.93R WCI  22
JUNEAU         CLOUDY    33  28  83 W9G16     29.96R WCI  25
$$

LSZ147-162-272200-
LAKE SUPERIOR

STATION/POSITION TIME  TEMP    WIND        PRES    WAVE
                       AIR SEA DIR/SP/G            HT/PER
                 (UTC) (F)     (DEG/KT/KT) (MB)    (FT/S)
DEVILS ISLAND    2100   25     260/ 16/ 20 1015.9R
PORT WING        2040   25     250/ 11/ 16 1015.9S
SAXON HARBOR     2000   26     290/  6/  8 1014.6F
$$

LMZ867-665-643>646-272200-
LAKE MICHIGAN

STATION/POSITION TIME  TEMP    WIND        PRES    WAVE
                       AIR SEA DIR/SP/G            HT/PER
                 (UTC) (F)     (DEG/KT/KT) (MB)    (FT/S)
CHAMBERS ISLAND  2000   33     300/  6/ 10 1009.8R
NORTHPORT PIER   2100   33     300/  8/ 18 1010.8R
SISTER BAY       2043          340/ 16/ 17   N/A
ALGOMA LAKESHORE 2045          320/ 11/ 14   N/A
KEWAUNEE LAKESHO 2100   34     310/  9/ 15 1010.3R
SHEBOYGAN LAKESH 2100   36 39  270/ 25/ 32 1013.3R
PORT WASHINGTON  2000   39     260/ 16     1012.5R
MILWAUKEE LAKESH 2100   38     260/ 16/ 21   N/A
KENOSHA   LAKESH 2100   37     260/ 22/ 32 1015.6R
$$

TC  - TEMPERATURE IN CELSIUS
VSB - VISIBILITY IN STATUTE MILES
WCI - WIND CHILL INDEX
HX  - HEAT INDEX




USA.gov is the U.S. government's official web portal to all federal, state and local government web resources and services.